This demonstration page uses our WeatherBlox Daily Observations layout. Learn more.

Left ArrowRight Arrow

Hourly Observations for July 15, 2015

Temp ( °F °C ) Dew Point ( °F °C ) Humidity (%) Winds ( mph kmh ) Pressure ( in mb ) Visibility ( mi km ) Precip ( " mm )
12:52 am 00:52 Clear 74 23.3 71 21.7 91 91 S 3 6 29.85 1011 10 16 0.00 0.00
1:52 am 01:52 Clear 74 23.3 71 21.7 91 91 SSE 3 6 29.86 1011 10 16 0.00 0.00
2:52 am 02:52 Clear 74 23.3 71 21.7 91 91 S 5 7 29.85 1011 10 16 0.00 0.00
3:52 am 03:52 Partly Cloudy 74 23.3 71 21.7 91 91 S 5 7 29.85 1011 10 16 0.00 0.00
4:52 am 04:52 Mostly Cloudy 75 23.9 72 22.2 90 90 Calm 29.87 1012 10 16 0.00 0.00
5:52 am 05:52 Partly Cloudy 75 23.9 72 22.2 90 90 Calm 29.89 1012 10 16 0.00 0.00
6:52 am 06:52 Sunny 76 24.4 72 22.2 88 88 Calm 29.88 1012 10 16 0.00 0.00
7:52 am 07:52 Mostly Cloudy 80 26.7 74 23.3 82 82 S 6 9 29.89 1012 10 16 0.00 0.00
8:52 am 08:52 Sunny 84 28.9 76 24.4 77 77 S 3 6 29.89 1012 10 16 0.00 0.00
9:52 am 09:52 Sunny 86 30 76 24.4 72 72 W 3 6 29.90 1013 10 16 0.00 0.00
10:52 am 10:52 Sunny 88 31.1 75 23.9 66 66 NW 6 9 29.91 1013 10 16 0.00 0.00
11:52 am 11:52 Mostly Sunny 89 31.7 76 24.4 65 65 VRB 5 7 29.91 1013 10 16 0.00 0.00
12:52 pm 12:52 Mostly Sunny 90 32.2 75 23.9 62 62 Calm 29.89 1012 10 16 0.00 0.00
1:52 pm 13:52 Sunny 90 32.2 75 23.9 62 62 Calm 29.90 1012 10 16 0.00 0.00
2:47 pm 14:47 Partly Cloudy with Nearby Thunderstorms 91 33 73 23 56 56 N 5 7 29.85 1011 10 16 0.00 0.00
2:52 pm 14:52 Mostly Cloudy with Nearby Thunderstorms 91 32.8 74 23.3 57 57 NNE 7 11 29.89 1012 10 16 0.00 0.00
3:16 pm 15:16 Partly Cloudy 84 28.9 69 20.6 61 61 ENE 16 26 29.85 1011 10 16 0.00 0.00
3:52 pm 15:52 Sunny 85 29.4 67 19.4 55 55 E 13 20 29.88 1012 10 16 0.00 0.00
4:52 pm 16:52 Sunny 88 31.1 68 20 52 52 ESE 14 22 29.88 1012 10 16 0.00 0.00
5:52 pm 17:52 Sunny 87 30.6 66 18.9 50 50 ESE 9 15 29.86 1011 10 16 0.00 0.00
6:52 pm 18:52 Sunny 87 30.6 69 20.6 55 55 ESE 6 9 29.86 1011 10 16 0.00 0.00
7:52 pm 19:52 Sunny 84 28.9 67 19.4 57 57 ESE 9 15 29.88 1012 10 16 0.00 0.00
8:52 pm 20:52 Partly Cloudy with Nearby Thunderstorms 82 27.8 70 21.1 67 67 SE 10 17 29.89 1012 10 16 0.00 0.00
9:08 pm 21:08 Clear 82 28 72 22 70 70 SSE 10 17 29.88 1012 10 16 0.00 0.00
9:52 pm 21:52 Clear 80 26.7 72 22.2 76 76 SSE 12 19 29.90 1012 10 16 0.00 0.00
10:52 pm 22:52 Clear 79 26.1 72 22.2 79 79 SSE 9 15 29.90 1012 10 16 0.00 0.00
11:52 pm 23:52 Clear 77 25 69 20.6 77 77 SSE 9 15 29.91 1013 10 16 0.00 0.00

Powered by AerisWeather